ES'HAIL 2 (43700 NORAD) Tracking and Keplerian Element Data

This shows tracking and keplerian element data for the satellite.

Feedback or suggestion? Click here.




ElementValue
Catalog43700
NameES'HAIL 2
Epoch Orbit172
Epoch Day112.82060715
Epoch Year2019
RAAN239.7142
Inclination0.0148
Eccentricity0.0001768
Argument of Perigee186.4994
Mean Anonmoly105.5821
Mean Motion1.00272153
Decay Rate1.28E-06
L11 43700U 18090A 19112.82060715 .00000128 00000-0 00000+0 0 9995
L22 43700 0.0148 239.7142 0001768 186.4994 105.5821 1.00272153 1723

Live tracking and technical data element details for ES'HAIL 2 (NORAD 43700). ES'HAIL 2 can be tracked NOW for your location showing map with azimuth and elevation plus other details from your city location.

Track the satellite on the map from your city or location and see movement details for azimuth, elevation, latitude, longitude, range, height, and movement on the map or in text.







IsCatalogInMostPopularTable: catalog: 43700, numindb: 3589
Update: records affected: 1



GetName: 43700 ES'HAIL 2

Hit Count: updated at: Tue, 23 Apr 2019 19:50:10 GMT